Starlink 11558

operational
NORAD ID: 63055 Int'l Des: 2025-035 Owner: SPXS Country: US Constellation: starlink
LEOCIRCULAR

关于 Starlink 11558

正在加载描述...

实时位置

正在加载3D地球...

即将过境

高度历史

Altitude vs Time

uPlot chart will show altitude changes over time

两行轨道根数

1 63055U 25035D 25351.84467982 .00193409 00000-0 14719-2 0 9998
2 63055 42.9994 148.2436 0002872 272.2023 87.8516 15.70904466 48248
Epoch: Dec 17, 2025 • Age: 15 hours

当前状态

高度 354.9 km
速度 7.70 km/s
星下点 7.33°N, 108.7°W
发射日期 Feb 21, 2025
运行时间 0.8 years
类型 internet

技术详情

分类 Payload
质量 960.00 kg
干质量 910.00 kg
总质量 960.00 kg
长度 0.30 m
直径 4.10 m
跨度 29.00 m
形状 Box + pan
制造商 SPXS
平台类型 Starlink V2MD
阶段状态 In Orbit
所有者/国家 SPXS/US

大型星座

Loading constellations...